User: anonymous   Login
Location: Unspecified
(0.0000°N, 0.0000°E)
Time: 04:04:21
(UTC+02:00)
Language:

Cosmos 1933 - Orbit

View from above orbital plane
View from above orbital plane
View from above satellite
View from above satellite

Ground track
Ground track

The orbit data is extracted from the following two-line orbital elements,

1 18958U 88020A   15088.72278182  .00002981  00000-0  22581-3 0  9999
2 18958 082.5320 165.2842 0013110 151.5235 208.6709 15.01883818469812
Epoch (UTC): 29 March 2015 17:20:48
Eccentricity: 0.0013110
inclination: 82.5320°
perigee height: 552 km
apogee height: 570 km
right ascension of ascending node: 165.2842°
argument of perigee: 151.5235°
revolutions per day: 15.01883818
mean anomaly at epoch: 208.6709°
orbit number at epoch: 46981

The dashed part of the orbit path shows where the satellite is in the earth's shadow,  

DLR